Regional Weather Roundup
Issued by NWS Upton, NY

Home | Current Version | Previous Version | Text Only | Print | Product List | Glossary On
Versions: 1 2 3 4 5 6 7 8 9 10 11 12 13 14 15 16 17 18 19 20 21 22 23 24 25 26 27 28 29 30 31 32 33 34 35 36 37 38 39 40 41 42 43 44 45 46 47 48 49 50
000
ASUS41 KOKX 312305
RWROKX

REGIONAL WEATHER ROUNDUP
NATIONAL WEATHER SERVICE NEW YORK NY
700 PM EDT WED AUG 31 2016

NOTE: "FAIR" INDICATES FEW OR NO CLOUDS BELOW 12,000 FEET WITH NO
SIGNIFICANT WEATHER AND/OR OBSTRUCTIONS TO VISIBILITY.

NYZ071-072-176-178-NJZ106-104-010000-
NEW YORK CITY METRO AREA

CITY           SKY/WX    TMP DP  RH WIND       PRES   REMARKS
Central Park   CLOUDY    80  66  62 VRB6      29.90S
LaGuardia APRT CLOUDY    82  67  60 S14       29.87S
Kennedy INTL   CLOUDY    80  76  87 S15G23    29.88F
Newark/Liberty CLOUDY    82  68  62 SE8       29.86F
Bronx Bot Gard   N/A     79  66  65 SW1       29.88F
Wall St Helipt PTCLDY    81  70  69 S5        29.88F
Teterboro      CLOUDY    82  64  54 S9        29.86R
$$

NYZ177-179-078>081-010000-
LONG ISLAND NEW YORK

CITY           SKY/WX    TMP DP  RH WIND       PRES   REMARKS
Farmingdale    CLOUDY    78  71  79 S9        29.89S
MacArthur/ISP  MOCLDY    78  71  79 S12       29.89S
Shirley        CLOUDY    77  71  82 S7        29.90S
Riverhead      NOT AVBL
Westhampton    CLOUDY    76  70  82 SW7       29.91F
Southampton      N/A     75  72  88 SW3       29.86S
Bridgehampton  NOT AVBL
East Hampton   FAIR      75  70  84 S5        29.89S
Montauk          N/A     76  71  85 S6        29.91S
$$

NYZ052-065-067-010000-
HUDSON VALLEY

CITY           SKY/WX    TMP DP  RH WIND       PRES   REMARKS
White Plains   CLOUDY    79  68  69 S6        29.89S
Newburgh       MOCLDY    75  68  78 CALM      29.90F
Montgomery     CLOUDY    77  68  73 CALM      29.88F
Poughkeepsie   CLOUDY    74  68  81 CALM      29.87F
Albany         CLOUDY    75  66  73 S5        29.86F
$$

NJZ001-105-106-008-010-013-015-019>022-104-010000-
NEW JERSEY

CITY           SKY/WX    TMP DP  RH WIND       PRES   REMARKS
Newark/Liberty CLOUDY    82  68  62 SE8       29.86F
Teterboro      CLOUDY    82  64  54 S9        29.86R
Caldwell       CLOUDY    83  65  54 NE3       29.87S
Morristown     CLOUDY    79  72  78 CALM      29.87F
Somerville     CLOUDY    80  70  71 CALM      29.85S
Linden         MOCLDY    83  66  56 CALM      29.88S
Sussex         MOCLDY    76  70  82 CALM      29.89S
Abdover          N/A     76  69  79 CALM      29.89S
Trenton        CLOUDY    84  63  49 E3        29.86S
Millville      CLEAR     80  68  66 VRB6      29.89S
Atlantic City  CLEAR     80  65  59 S12       29.89S
Wrightstown    MOCLDY    82  69  65 S9        29.84S
Toms River     CLOUDY    79  68  69 S10       29.89S
Belmar         PTCLDY    79  67  66 S9        29.89F
$$

PAZ047>061-062-071-010000-
EASTERN PENNSYLVANIA

CITY           SKY/WX    TMP DP  RH WIND       PRES   REMARKS
Philadelphia   CLOUDY    87  64  46 SW13      29.87R
Allentown      MOCLDY    80  66  62 CALM      29.88S
Scranton       CLOUDY    78  67  68 CALM      29.91S
$$

CTZ002-004>006-009-010-012-RIZ004-006-007-MAZ004-011-015-010000-
SOUTHERN NEW ENGLAND
 IN CT

CITY           SKY/WX    TMP DP  RH WIND       PRES   REMARKS
Bradley INTL   LGT RAIN  77  67  71 SW7       29.88S
Hartford       CLOUDY    82  66  58 VRB5      29.87S
Danbury        PTCLDY    75  69  81 SE5       29.90S
Wtrbury/Oxford CLOUDY    75  66  73 CALM      29.93S
Bridgeport     CLOUDY    80  70  71 S9        29.88S
Meriden        CLOUDY    79  69  71 CALM      29.88S
New Haven      CLOUDY    78  70  76 S8        29.88F
Chester        FAIR      77  70  78 S3        29.90S
Groton         CLOUDY    76  71  85 SW6       29.88S
Wilimantic     CLOUDY    78  68  71 SW3       29.89S

 IN RI

CITY           SKY/WX    TMP DP  RH WIND       PRES   REMARKS
Providence     CLOUDY    78  68  71 SW7       29.88F
Block Island   CLOUDY    74  71  91 S12       29.90F
Westerly       CLOUDY    77  68  73 SW9       29.90S
 IN MA

CITY           SKY/WX    TMP DP  RH WIND       PRES   REMARKS
Boston         CLOUDY    80  66  62 SW16      29.86S
Worcester      CLOUDY    72  64  76 SW7       29.90F
Westfield      CLOUDY    77  67  71 S8G17     29.86F
Provincetown   CLOUDY    73  70  90 SW13      29.88S
Nantucket      CLOUDY    71  68  90 S13       29.90F
$$

ANZ330-335-338-340-345-350-353-355-010000-
COASTAL MARINE OBSERVATIONS


STATION/POSITION TIME  SKY/WX   TEMP    WIND        PRES    VSBY  WAVE
                                AIR SEA DIR/SP/G                  HT/PER
                 (UTC)          (F)     (DEG/KT/KT) (MB)    (MI)  (FT/S)
NY HARB ENTRANCE 2150            78 78  190/ 14/ 17 1011.7          4/11
20S FIRE ISLAND  2150            77 76  190/ 14/ 16 1011.9          4/11
GREAT SOUTH BAY  2215            77 80  190/ 12/ 14   N/A
23 SSW MONTAUK P 2150            77 78  210/ 14/ 17 1012.7          4/12
15 E BARNEGAT LI 2200               78                N/A           4/11
HUDSON CANYON    2150            78 80              1013.0          4/10
KINGS POINT      2200            79 79                N/A
EXECUTION ROCKS  2200            81     180/  8/ 10   N/A
CENTRAL LI SOUND 2200            78 77  190/ 10/ 12   N/A           0
EASTERN LI SOUND 2200            75 71  210/  8/ 10   N/A
ROBBINS REEF     2206                               1010.9
$$


>>>>>>>>>>>>>>>>>>>>>>>>>>>> KEY <<<<<<<<<<<<<<<<<<<<<<<<<<<
>                                                          <
>     SKY/WX - Sky Condition/Present Weather               <
>     TMP    - Temperature in Fahrenheit                   <
>     DP     - Dew Point in Fahrenheit                     <
>     RH     - Relative Humidity in Percent                <
>     WIND   - Direction (from) and Speed in MPH           <
>     PRES   - Mean Sea Level Pressure (inches of Hg)      <
>     WCI    - Wind Chill Index                            <
>     VSB    - VISIBILITY IN MILES                         <
>     HX     - HEAT INDEX                                  <
>     TC     - TEMPERATURE IN CELSIUS                      <
>     VRB    - VARIABLE WIND DIRECTION                     <
>                                                          <
>>>>>>>>>>>>>>>>>>>>>>>>>>>> KEY <<<<<<<<<<<<<<<<<<<<<<<<<<<



USA.gov is the U.S. government's official web portal to all federal, state and local government web resources and services.